FW8865 Weather Reports


time (UTC)temp
C
wind
direction
speed
KPH
gust
KPH
rain 1hr
cm
rain 24hr
cm
rain mn
cm
humidity
%
barometer
mb
20260505153216 11 315 6.4 9.7 0.00 0.00 0.00 55 1004.1
20260505152216 11 293 4.8 8.0 0.00 0.00 0.00 57 1004.3
20260505151236 11 293 6.4 9.7 0.00 0.00 0.00 62 1004.7
20260505150218 11 338 4.8 9.7 0.00 0.00 0.00 63 1004.6
20260505140217 11 293 3.2 8.0 0.00 0.00 0.00 58 1004.8
20260505130237 13 270 1.6 4.8 0.00 0.00 0.00 40 1003.8
20260505124217 13 270 1.6 3.2 0.00 0.00 0.00 40 1003.2
20260505123217 13 248 3.2 4.8 0.00 0.00 0.00 40 1003.3
20260505122238 13 248 3.2 4.8 0.00 0.00 0.00 40 1003.1
20260505121217 13 248 3.2 6.4 0.00 0.00 0.00 40 1003.2
20260505120217 13 270 3.2 4.8 0.00 0.00 0.00 39 1003.1
20260505115217 13 248 3.2 6.4 0.00 0.00 0.00 39 1003.0
20260505114217 13 248 3.2 4.8 0.00 0.00 0.00 39 1003.0
20260505113217 13 248 3.2 6.4 0.00 0.00 0.00 39 1002.9
20260505112217 13 270 3.2 4.8 0.00 0.00 0.00 39 1003.0
20260505111217 13 270 1.6 3.2 0.00 0.00 0.00 38 1002.9
20260505110217 13 270 1.6 3.2 0.00 0.00 0.00 38 1003.5
20260505102217 14 248 1.6 4.8 0.00 0.00 0.00 38 1003.6
20260505101217 14 248 1.6 3.2 0.00 0.00 0.00 37 1003.2
20260505100217 14 0.0 3.2 0.00 0.00 0.00 36 1003.1
20260505095237 14 248 1.6 3.2 0.00 0.00 0.00 36 1003.0
20260505094358 14 0.0 1.6 0.00 0.00 0.00 36 1003.2
20260505093217 15 0.0 0.0 0.00 0.00 0.00 35 1003.1
20260505092217 15 0.0 0.0 0.00 0.00 0.00 34 1003.2
20260505091217 15 270 1.6 3.2 0.00 0.00 0.00 34 1002.9
20260505090217 15 270 1.6 6.4 0.00 0.00 0.00 34 1002.6
20260505085217 15 293 1.6 3.2 0.00 0.00 0.00 34 1003.0
20260505084216 15 293 1.6 3.2 0.00 0.00 0.00 34 1003.0
20260505083216 15 270 1.6 3.2 0.00 0.00 0.00 34 1002.7
20260505082217 15 270 4.8 8.0 0.00 0.00 0.00 35 1002.7
20260505081217 15 270 6.4 9.7 0.00 0.00 0.00 35 1002.9
20260505080238 15 248 3.2 4.8 0.00 0.00 0.00 34 1003.1
20260505075238 16 270 4.8 6.4 0.00 0.00 0.00 34 1003.6
20260505074216 16 270 4.8 8.0 0.00 0.00 0.00 33 1003.3
20260505073216 16 248 3.2 4.8 0.00 0.00 0.00 33 1003.3
20260505072216 16 248 4.8 6.4 0.00 0.00 0.00 32 1003.3
20260505071217 16 270 4.8 9.7 0.00 0.00 0.00 32 1003.3
20260505070216 17 248 6.4 11.3 0.00 0.00 0.00 31 1002.9
20260505065216 17 248 3.2 4.8 0.00 0.00 0.00 31 1003.2
20260505064216 17 225 4.8 6.4 0.00 0.00 0.00 30 1003.3
20260505063216 17 248 4.8 8.0 0.00 0.00 0.00 30 1003.1
20260505062218 17 270 6.4 8.0 0.00 0.00 0.00 29 1002.6
20260505061216 17 248 6.4 9.7 0.00 0.00 0.00 29 1002.6
20260505060216 17 248 6.4 11.3 0.00 0.00 0.00 28 1002.6
20260505055216 18 248 4.8 8.0 0.00 0.00 0.00 28 1002.7
20260505054236 18 248 6.4 9.7 0.00 0.00 0.00 27 1002.7
20260505053216 18 270 4.8 8.0 0.00 0.00 0.00 27 1002.7
20260505052216 18 270 6.4 8.0 0.00 0.00 0.00 27 1002.6
20260505051216 18 248 4.8 6.4 0.00 0.00 0.00 27 1002.5
20260505050217 18 248 3.2 4.8 0.00 0.00 0.00 27 1002.1
20260505041216 19 248 4.8 6.4 0.00 0.00 0.00 27 1002.2
20260505040216 19 248 4.8 8.0 0.00 0.00 0.00 27 1001.5
20260505035216 19 248 3.2 9.7 0.00 0.00 0.00 27 1002.1
20260505034216 19 225 8.0 9.7 0.00 0.00 0.00 27 1002.0
20260505033216 20 248 6.4 9.7 0.00 0.00 0.00 27 1001.2
20260505032216 20 248 3.2 6.4 0.00 0.00 0.00 26 1001.0
20260505031216 20 248 4.8 6.4 0.00 0.00 0.00 26 1001.0
20260505030218 20 270 8.0 14.5 0.00 0.00 0.00 26 1000.9
20260505025218 20 270 4.8 6.4 0.00 0.00 0.00 25 1001.4
20260505024218 20 270 6.4 16.1 0.00 0.00 0.00 25 1001.4
20260505023218 21 270 4.8 6.4 0.00 0.00 0.00 25 1001.0
20260505022218 21 270 6.4 11.3 0.00 0.00 0.00 24 1001.4
20260505021217 21 270 6.4 8.0 0.00 0.00 0.00 23 1001.3
20260505020217 21 270 6.4 9.7 0.00 0.00 0.00 23 1000.7
20260505015238 21 270 4.8 6.4 0.00 0.00 0.00 23 1001.2
20260505014217 22 270 4.8 6.4 0.00 0.00 0.00 23 1000.8
20260505013238 22 270 6.4 9.7 0.00 0.00 0.00 23 1000.7
20260505012217 22 270 6.4 8.0 0.00 0.00 0.00 23 1000.5
20260505011217 22 248 8.0 17.7 0.00 0.00 0.00 22 1000.4
20260505010217 22 248 4.8 9.7 0.00 0.00 0.00 22 1000.7
20260505005217 22 270 6.4 9.7 0.00 0.00 0.00 22 1000.7
20260505004217 22 248 4.8 9.7 0.00 0.00 0.00 21 1000.9
20260505003218 23 270 4.8 8.0 0.00 0.00 0.00 21 1000.7
20260505002217 23 248 6.4 14.5 0.00 0.00 0.00 20 1000.9
20260505001217 23 248 4.8 8.0 0.00 0.00 0.00 19 1001.0
20260505000218 23 248 12.9 24.1 0.00 0.00 0.00 19 1000.9
20260504235217 23 248 9.7 22.5 0.00 0.00 0.00 19 1000.9
20260504234218 23 225 6.4 8.0 0.00 0.00 0.00 19 1000.9
20260504233217 23 248 6.4 17.7 0.00 0.00 0.00 18 1001.1
20260504232217 23 248 9.7 17.7 0.00 0.00 0.00 17 1001.1
20260504231217 23 248 8.0 16.1 0.00 0.00 0.00 17 1001.0
20260504230217 23 248 6.4 11.3 0.00 0.00 0.00 17 1001.1
20260504225217 23 225 8.0 19.3 0.00 0.00 0.00 17 1001.2
20260504224217 23 248 6.4 14.5 0.00 0.00 0.00 17 1001.2
20260504223217 23 203 4.8 8.0 0.00 0.00 0.00 18 1001.6
20260504222218 23 225 9.7 24.1 0.00 0.00 0.00 17 1001.7
20260504221238 23 248 6.4 11.3 0.00 0.00 0.00 17 1001.9
20260504220217 23 225 9.7 17.7 0.00 0.00 0.00 17 1001.9
20260504215217 23 225 4.8 8.0 0.00 0.00 0.00 18 1001.8
20260504214217 23 225 8.0 20.9 0.00 0.00 0.00 18 1001.9
20260504213217 23 248 4.8 9.7 0.00 0.00 0.00 18 1002.1
20260504212217 23 225 6.4 14.5 0.00 0.00 0.00 19 1002.2
20260504211216 24 248 8.0 16.1 0.00 0.00 0.00 19 1002.6
20260504210217 24 248 8.0 16.1 0.00 0.00 0.00 18 1003.0
20260504205217 23 225 6.4 14.5 0.00 0.00 0.00 20 1002.9
20260504204217 22 315 4.8 11.3 0.00 0.00 0.00 22 1003.6
20260504203257 23 270 8.0 16.1 0.00 0.00 0.00 21 1003.7
20260504202217 23 203 4.8 6.4 0.00 0.00 0.00 22 1003.9
20260504201216 22 270 4.8 9.7 0.00 0.00 0.00 22 1004.3
20260504200216 22 225 4.8 9.7 0.00 0.00 0.00 22 1004.4
20260504195236 22 225 6.4 11.3 0.00 0.00 0.00 22 1004.2
20260504194216 22 248 6.4 11.3 0.00 0.00 0.00 22 1004.3
20260504193216 21 225 3.2 6.4 0.00 0.00 0.00 23 1004.8
20260504192216 21 270 4.8 9.7 0.00 0.00 0.00 23 1004.8
20260504191217 21 270 4.8 8.0 0.00 0.00 0.00 22 1005.0
20260504190216 21 225 4.8 8.0 0.00 0.00 0.00 25 1004.8
20260504185216 21 225 3.2 6.4 0.00 0.00 0.00 25 1004.6
20260504184217 21 248 8.0 20.9 0.00 0.00 0.00 25 1005.0
20260504183216 21 270 6.4 11.3 0.00 0.00 0.00 25 1005.1
20260504182216 21 158 6.4 16.1 0.00 0.00 0.00 26 1005.6
20260504181216 20 248 8.0 14.5 0.00 0.00 0.00 27 1005.7
20260504180236 20 225 3.2 6.4 0.00 0.00 0.00 25 1005.7
20260504175257 20 248 4.8 9.7 0.00 0.00 0.00 24 1005.8
20260504174216 20 225 4.8 6.4 0.00 0.00 0.00 24 1005.9
20260504173216 20 203 3.2 6.4 0.00 0.00 0.00 26 1006.1
20260504172216 20 203 6.4 14.5 0.00 0.00 0.00 27 1006.6
20260504171216 19 248 6.4 8.0 0.00 0.00 0.00 27 1006.2
20260504170236 19 270 3.2 4.8 0.00 0.00 0.00 26 1006.5
20260504160216 17 248 4.8 8.0 0.00 0.00 0.00 31 1006.5